SINOD-D 3

Last updated on Sun Dec 14 2025 00:03:50 GMT+0000 (Coordinated Universal Time)

1 40977U 15058P 25346.85307972 .00009123 00000+0 77800-3 0 9996 2 40977 64.7725 136.9548 0125328 132.6164 228.5601 14.92297356 86938
UTC large
Height (km)
Speed (km/s)
/
Latitude / Longitude
Inclination (degrees)
Orbital Period (minutes)
Azimuth
Elevation
Range (km)
Doppler Factor

Next 0 passes for location: London (51.5072 / 0.1276)

Sorry there are no passes over London.